TimeCDT,TemperatureF,Dew PointF,Humidity,Sea Level PressureIn,VisibilityMPH,Wind Direction,Wind SpeedMPH,Gust SpeedMPH,PrecipitationIn,Events,Conditions,WindDirDegrees,DateUTC
12:56 AM,79.0,64.0,60,29.81,-9999.0,SSE,11.5,18.4,N/A,,Unknown,160,2013-06-24 05:56:00
1:56 AM,78.1,64.0,62,29.81,-9999.0,SE,11.5,17.3,N/A,,Unknown,140,2013-06-24 06:56:00
2:56 AM,75.9,64.0,67,29.79,-9999.0,SE,15.0,23.0,N/A,,Unknown,140,2013-06-24 07:56:00
3:56 AM,75.0,64.0,69,29.80,-9999.0,SE,8.1,-,N/A,,Unknown,140,2013-06-24 08:56:00
4:56 AM,75.0,64.0,69,29.80,-9999.0,SSE,9.2,18.4,N/A,,Unknown,160,2013-06-24 09:56:00
5:56 AM,73.9,63.0,68,29.81,-9999.0,SSE,8.1,-,N/A,,Unknown,160,2013-06-24 10:56:00
6:56 AM,75.0,63.0,66,29.82,-9999.0,SSE,9.2,19.6,N/A,,Unknown,160,2013-06-24 11:56:00
7:56 AM,77.0,63.0,62,29.83,-9999.0,South,10.4,17.3,N/A,,Unknown,170,2013-06-24 12:56:00
8:56 AM,82.0,62.1,51,29.83,-9999.0,South,19.6,33.4,N/A,,Unknown,180,2013-06-24 13:56:00
9:56 AM,81.0,62.1,52,29.84,-9999.0,South,19.6,31.1,N/A,,Unknown,180,2013-06-24 14:56:00
10:56 AM,84.0,63.0,49,29.84,-9999.0,South,19.6,29.9,N/A,,Unknown,190,2013-06-24 15:56:00
11:56 AM,81.0,63.0,54,29.85,-9999.0,South,15.0,25.3,N/A,,Unknown,180,2013-06-24 16:56:00
12:56 PM,84.0,64.0,51,29.83,-9999.0,South,17.3,24.2,N/A,,Unknown,170,2013-06-24 17:56:00
1:56 PM,87.1,64.0,46,29.79,-9999.0,South,20.7,28.8,N/A,,Unknown,180,2013-06-24 18:56:00
2:56 PM,93.0,64.0,38,29.76,-9999.0,South,21.9,32.2,N/A,,Unknown,180,2013-06-24 19:56:00
3:56 PM,95.0,61.0,32,29.74,-9999.0,South,21.9,40.3,N/A,,Unknown,180,2013-06-24 20:56:00
4:56 PM,96.1,57.9,28,29.72,-9999.0,South,23.0,35.7,N/A,,Unknown,170,2013-06-24 21:56:00
5:56 PM,95.0,57.9,29,29.71,-9999.0,South,24.2,35.7,N/A,,Unknown,170,2013-06-24 22:56:00
6:56 PM,91.0,59.0,34,29.71,-9999.0,South,21.9,34.5,N/A,,Unknown,170,2013-06-24 23:56:00
7:56 PM,88.0,61.0,40,29.75,-9999.0,South,11.5,19.6,N/A,,Unknown,170,2013-06-25 00:56:00
8:56 PM,86.0,63.0,46,29.78,-9999.0,SSE,10.4,19.6,N/A,,Unknown,160,2013-06-25 01:56:00
9:56 PM,84.0,64.9,53,29.79,-9999.0,SE,12.7,20.7,N/A,,Unknown,140,2013-06-25 02:56:00
10:56 PM,82.9,66.0,56,29.84,-9999.0,East,5.8,-,N/A,,Unknown,90,2013-06-25 03:56:00
11:56 PM,81.0,64.9,58,29.78,-9999.0,SSE,17.3,28.8,N/A,,Unknown,150,2013-06-25 04:56:00